Regional Weather Roundup
Issued by NWS

Home | Current Version | Previous Version | Graphics & Text | Print | Product List | Glossary On
Versions: 1 2 3 4 5 6 7 8 9 10 11 12 13 14 15 16 17 18 19 20 21 22 23 24 25 26 27 28 29 30 31 32 33 34 35 36 37 38 39 40 41 42 43 44 45 46 47 48 49 50
000
ASUS43 KMPX 041710
RWRMN
WEATHER ROUNDUP FOR MINNESOTA
NATIONAL WEATHER SERVICE TWIN CITIES/CHANHASSEN MN
1200 PM CDT TUE AUG 04 2015


NOTE: "FAIR" INDICATES FEW OR NO CLOUDS BELOW 12,000 FEET WITH NO
SIGNIFICANT WEATHER AND/OR OBSTRUCTIONS TO VISIBILITY. N/A MEANS
CURRENT SKY AND/OR WEATHER CONDITIONS ARE NOT AVAILABLE.

MNZ060>063-068>070-041800-
   Twin Cities Metro

CITY           SKY/WX    TMP DP  RH WIND       PRES   REMARKS
TWIN CITIES    MOSUNNY   77  50  38 W10       30.00F
ST PAUL        SUNNY     77  51  40 W8        30.00F
CRYSTAL        SUNNY     78  54  43 W9G16     29.99F
LAKEVILLE      MOSUNNY   73  55  53 W6        30.02S
EDEN PRAIRIE   SUNNY     77  52  41 W7        30.00F
SOUTH ST PAUL  SUNNY     77  48  36 NW9       30.00S
LAKE ELMO      FAIR      73  54  49 W7        30.01F
$$
MNZ001>005-007-008-013>017-022>024-027-028-041800-
   Northwest Minnesota

CITY           SKY/WX    TMP DP  RH WIND       PRES   REMARKS
BEMIDJI        PTSUNNY   68  51  53 NW5       30.02S
HALLOCK        SUNNY     70  52  52 N7        30.03S
ROSEAU         MOSUNNY   66  55  68 N7        30.03S
WARROAD        PTSUNNY   63  54  72 NE9       30.04S
THIEF RVR FALL PTSUNNY   68  54  60 NW3       30.03S
CROOKSTON      SUNNY     72  54  53 N7        30.03F
FOSSTON        MOSUNNY   72  52  49 NW6       30.03F
DETROIT LAKES  SUNNY     72  50  46 NW7       30.04S
MOORHEAD       SUNNY     73  54  49 NE7       30.02F
PARK RAPIDS    SUNNY     73  51  46 NW9       30.01F
MAHNOMEN       FAIR      69  52  55 NW7       30.03S
$$
MNZ006-009>011-018-025>026-041800-
   North Central Minnesota

CITY           SKY/WX    TMP DP  RH WIND       PRES   REMARKS
BAUDETTE       CLOUDY    63  50  62 NW8       30.03R
FLAG ISLAND    PTSUNNY   61  48  63 N3        30.03S
INTL FALLS     CLOUDY    58  49  72 N9        30.03R
WASKISH        PTSUNNY   66  54  63 W7        30.01S
BIG FORK       MOSUNNY   66  52  59 N3        30.01S
LONGVILLE      SUNNY     70  54  56 NW7       30.02S
GRAND RAPIDS   PTSUNNY   70  50  49 NW14G20   30.01S
CRANE LAKE     CLOUDY    57  48  72 VRB7      30.02S
ORR            PTSUNNY   63  50  63 CALM      29.98S
COOK           PTSUNNY   63  54  72 NE5       30.01R
WALKER         FAIR      70  53  54 N8        30.02S
$$
MNZ012-019>021-037-041800-
   Northeast Minnesota

CITY           SKY/WX    TMP DP  RH WIND       PRES   REMARKS
DULUTH         CLOUDY    68  52  56 NW10      29.99R
ELY            CLOUDY    59  50  72 NW6       30.00S
HIBBING        CLOUDY    67  52  58 NW9       30.00R
EVELETH        PTSUNNY   63  50  63 N7        30.01R
DULUTH HARBOR  PTSUNNY   72  55  56 NW9       29.98S
TWO HARBORS    PTSUNNY   72  55  56 NW5       29.96S
SILVER BAY     CLOUDY    64  54  68 NW3       29.97R
GRAND MARAIS     N/A     51  46  83 SW7       29.97R
G MARAIS ARPRT CLOUDY    61  46  59 NW6       29.99S
$$
MNZ029>031-032-039>041-046>048-054>057-064-041800-
   West Central Minnesota

CITY           SKY/WX    TMP DP  RH WIND       PRES   REMARKS
FERGUS FALLS   SUNNY     75  52  43 NW7       30.00F
WHEATON        SUNNY     75  52  43 NW7       30.01F
MORRIS         SUNNY     79  54  41 CALM      30.00S
ALEXANDRIA     SUNNY     76  52  43 NW10      30.03F
ELBOW LAKE     FAIR      73  53  48 N8        30.01F
WADENA         SUNNY     75  50  41 NW9       30.00F
GLENWOOD       SUNNY     75  54  46 W7        30.02F
APPLETON       SUNNY     79  48  34 CALM      30.00S
BENSON         MOSUNNY   79  52  38 W3        30.01S
ORTONVILLE     SUNNY     77  46  33 E5        30.00S
MADISON        MOSUNNY   77  50  38 CALM      30.00F
WILLMAR        FAIR      75  55  50 W3        30.03S
$$
MNZ033>034-036-042>043-049>051-058-059-041800-
   Central Minnesota

CITY           SKY/WX    TMP DP  RH WIND       PRES   REMARKS
ST CLOUD       SUNNY     77  52  41 W13       29.99F
SAUK CENTRE    FAIR      74  54  48 W9G16     30.01F
PAYNESVILLE    SUNNY     74  48  38 SW12      30.02F
AITKIN         SUNNY     73  55  53 CALM      29.98F
PINE RIVER     SUNNY     72  52  49 N9        30.03F
BRAINERD       SUNNY     73  50  44 NW10      30.00F
STAPLES        SUNNY     75  46  35 NW10G17   30.00F
LONG PRAIRIE   FAIR      73  50  43 NW10G17   30.01F
LITCHFIELD     SUNNY     77  52  41 W7        30.02S
BUFFALO        SUNNY     74  53  47 W9        30.01F
MAPLE LAKE     SUNNY     75  57  53 W5        30.01F
$$
MNZ037-044-045-052-053-041800-
   East Central Minnesota

CITY           SKY/WX    TMP DP  RH WIND       PRES   REMARKS
PRINCETON      SUNNY     77  54  44 W12       29.99F
MORA           SUNNY     73  52  46 NW7       30.00F
CAMBRIDGE      SUNNY     77  57  50 W9        29.97F
RUSH CITY      SUNNY     74  54  50 W6        29.99F
MOOSE LAKE     PTSUNNY   72  52  49 NW10      29.98S
HINCKLEY       FAIR      72  54  53 NW6       29.99F
CLOQUET        PTSUNNY   68  48  49 W6        29.99F
MCGREGOR       MOSUNNY   72  52  49 NW6       30.00F
$$
MNZ071>073-080-081-089-090-097-098-041800-
   Southwest Minnesota

CITY           SKY/WX    TMP DP  RH WIND       PRES   REMARKS
MONTEVIDEO     MOSUNNY   81  55  41 W5        30.03S
GRANITE FALLS  MOSUNNY   75  55  48 S3        30.03S
CANBY          MOSUNNY   77  52  41 SE5       30.02S
MARSHALL       PTSUNNY   77  50  38 S6        30.03F
REDWOOD FALLS  PTSUNNY   77  48  35 SW6       30.01F
OLIVIA         MOSUNNY   73  50  43 SW8       30.01S
PIPESTONE      CLOUDY    72  55  56 S7        30.02S
WINDOM         PTSUNNY   75  46  35 CALM      30.03F
WORTHINGTON    CLOUDY    72  55  56 E8        30.04S
JACKSON        PTSUNNY   75  50  41 E6        30.04F
TRACY          PTSUNNY   75  55  50 S6        30.02F
SLAYTON        CLOUDY    72  56  57 CALM      30.04S
$$
MNZ065>067-074>077-082>085-091>093-041800-
   South Central Minnesota

CITY           SKY/WX    TMP DP  RH WIND       PRES   REMARKS
MANKATO        PTSUNNY   73  52  46 SW5       30.04R
NEW ULM        PTSUNNY   75  46  35 SW6       30.02F
ST JAMES       PTSUNNY   75  50  41 CALM      30.04F
FAIRMONT       PTSUNNY   73  48  40 SE6       30.04S
GLENCOE        MOSUNNY   76  55  48 SW6       30.02S
FARIBAULT      PTSUNNY   73  54  49 W3        30.04S
OWATONNA       PTSUNNY   73  52  46 SW6       30.04S
WASECA         PTSUNNY   72  50  46 SW5       30.06R
ALBERT LEA     PTSUNNY   73  45  35 CALM      30.05S
$$
MNZ078>079-086>088-094>096-041800-
   Southeast Minnesota

CITY           SKY/WX    TMP DP  RH WIND       PRES   REMARKS
ROCHESTER      PTSUNNY   72  58  61 NW7       30.05S
RED WING       MOSUNNY   79  50  36 W7        29.99F
STANTON        MOSUNNY   75  52  43 SW5       30.01S
DODGE CENTER   PTSUNNY   72  50  46 NW6       30.05R
WINONA         MOSUNNY   73  54  49 W6        30.01F
AUSTIN         PTSUNNY   73  50  43 NW5       30.05R
PRESTON        PTSUNNY   71  54  56 NW7       30.05S
$$
ABBREVIATIONS USED IN REMARKS
   TC - TEMPERATURES IN CELSIUS
  WCI - WIND CHILL INDEX
   HX - HEAT INDEX
  VSB - VISIBILITY
$$


USA.gov is the U.S. government's official web portal to all federal, state and local government web resources and services.